Regional Weather Roundup
Issued by NWS Charleston, WV

Home | Current Version | Previous Version | Graphics & Text | Print | Product List | Glossary On
Versions: 1 2 3 4 5 6 7 8 9 10 11 12 13 14 15 16 17 18 19 20 21 22 23 24 25 26 27 28 29 30 31 32 33 34 35 36 37 38 39 40 41 42 43 44 45 46 47 48 49 50
702
ASUS41 KRLX 190110
RWRRLX
West Virginia Regional Weather Roundup
National Weather Service Charleston WV
900 PM EDT FRI AUG 18 2017

Note: "fair" indicates few or no clouds below 12,000 feet with no
significant weather and/or obstructions to visibility.

WVZ003-190200-
Northern Panhandle of West Virginia

CITY           SKY/WX    TMP DP  RH WIND       PRES   REMARKS
WHEELING       CLEAR     75  61  61 W7        29.88R
$$

WVZ009-190200-
Northwest West Virginia

CITY           SKY/WX    TMP DP  RH WIND       PRES   REMARKS
PARKERSBURG    CLEAR     72  67  84 CALM      29.92R
$$

WVZ006-190200-
Western West Virginia

CITY           SKY/WX    TMP DP  RH WIND       PRES   REMARKS
HUNTINGTON     CLEAR     76  66  71 SW3       29.92R
$$

WVZ015-190200-
West Central West Virginia

CITY           SKY/WX    TMP DP  RH WIND       PRES   REMARKS
CHARLESTON     PTCLDY    76  66  71 W3        29.92R
$$

WVZ022-031-190200-
North Central West Virginia

CITY           SKY/WX    TMP DP  RH WIND       PRES   REMARKS
CLARKSBURG     CLEAR     76  61  59 W5        29.90R
MORGANTOWN     CLEAR     77  61  57 CALM      29.90R
$$

WVZ025-035-042-045-190200-
Southern West Virginia

CITY           SKY/WX    TMP DP  RH WIND       PRES   REMARKS
BECKLEY        MOCLDY    71  67  87 SW7       30.00
LOGAN            N/A     75  66  73 W6        29.97R
BLUEFIELD      CLEAR     68  65  90 W6        30.03S
LEWISBURG      CLEAR     73  65  76 W3        29.98R
$$

WVZ047-190200-
Northern Mountains of West Virginia

CITY           SKY/WX    TMP DP  RH WIND       PRES   REMARKS
ELKINS         PTCLDY    74  65  73 N3        29.95
$$

WVZ052-190200-
Eastern Panhandle of West Virginia

CITY           SKY/WX    TMP DP  RH WIND       PRES   REMARKS
MARTINSBURG    PTCLDY    78  72  81 SW6       29.83R
PETERSBURG     CLEAR     76  73  87 CALM      29.87R
$$




USA.gov is the U.S. government's official web portal to all federal, state and local government web resources and services.